STARLINK-5930 (55928 NORAD) Tracking and Keplerian Element Data

This shows tracking and keplerian element data for the satellite.

Feedback or suggestion? Click here.




ElementValue
Catalog55928
NameSTARLINK-5930
Epoch Orbit840
Epoch Day127.25001157
Epoch Year2023
RAAN41.184
Inclination70.0019
Eccentricity0.0003205
Argument of Perigee275.1755
Mean Anonmoly102.2233
Mean Motion15.31620117
Decay Rate-0.00920006
L11 55928U 23037Q 23127.25001157 -.00920006 00000+0 -32789-1 0 9998
L22 55928 70.0019 41.1840 0003205 275.1755 102.2233 15.31620117 8400



Live tracking and technical data element details for STARLINK-5930 (NORAD 55928). STARLINK-5930 can be tracked NOW for your location showing map with azimuth and elevation plus other details from your city location.







IsCatalogInMostPopularTable: catalog: 55928, numindb: 8
Update: records affected: 1



GetName: 55928 STARLINK-5930

Hit Count: updated at: Tue, 06 Jun 2023 03:01:22 GMT